COSMOS 2251 DEB

Satellite information

Favourite Embed

Satellite Type and Status

DEBRISIN ORBIT

Key statistics

Satellite COSMOS 2251 DEB at a glance.

Uptime

11815

Days in orbit

Revolutions

≈ 14.4

Per day

Orbit

LEO

Low Earth Orbit

Inclination

74.0

Latest

Satellite identification and parameters

Extended collection of information and parameters for COSMOS 2251 DEB.

Object identification

Identified? True

Debris? True

Object name: COSMOS 2251 DEB

International designator: 1993-036BXG

Object number (NORAD): 47052

Object ID (CCSDS): 47052

Country: COMMONWEALTH OF INDEPENDENT STATES (CIS)

Current information (Y/N): Y

RCS size: SMALL

Orbital parameters

Period: 100.325 minutes

Inclination: 74.0474 deg

SMA: 7152.071 km

Apoapsis: 816.413 km

Periapsis: 731.458 km

RAAN: 81.2474 deg

Eccentricy: 0.00593921

Argument of periapsis: 170.9465 deg

Mean anomaly: 205.6976 deg

Mean motion: 14.35340924 rev/day

Mean motion (dot): 0.0000162 rev/day2

B* drag term: 0.00056250334 1/REarth

Two-line elements (TLE)

Creation date: Oct. 19, 2025, 2:20 a.m.

Reference frame: TEME

Reference center: EARTH

Epoch: Oct. 18, 2025, 4:07 p.m. UTC

TLE line 0: 0 COSMOS 2251 DEB

TLE line 1: 1 47052U 93036BXG 25291.67217087 .00001620 00000-0 56250-3 0 9996

TLE line 2: 2 47052 74.0474 81.2474 0059392 170.9465 205.6976 14.35340924609995

Live tracking on map

Real-time ground track for satellite COSMOS 2251 DEB.

In-orbit conjunctions

A list of the most updated potential collisions computed for object COSMOS 2251 DEB.

Target Orbit TCA Probability of collision Miss distance Type
HEALTHSAT 1 SSO 2025-05-16 19:59:06 0.0001250187 297.0 (m) PAYLOAD
CZ-6A DEB LEO 2025-03-08 01:01:26 0.0001241769 214.0 (m) DEBRIS
NOAA 17 DEB SSO 2024-09-27 19:41:49 0.0004153653 737.0 (m) DEBRIS

Associated space launch

Military communications satellite. Destroyed in a collision with Iridium 33.

COSMOS 2251 DEB was lifted into orbit during the mission ‘Kosmos-3M | Strela-2M 51’, on board a Kosmos-3M space rocket.

The launch took place on June 16, 1993, 4:17 a.m. from 132/1 (132L).

For more information about the launch, click the button.

Launch to space Kosmos-3M | Strela-2M 51
Kosmos-3M | Strela-2M 51

Agency: N/A

Status: Launch Successful

Launch date: June 16, 1993, 4:17 a.m. UTC

Rocket: Kosmos-3M

Launch pad: 132/1 (132L)

Location: Plesetsk Cosmodrome, Russian Federation

...

Latest news about this satellite

There are no fresh news available about this satellite. Check back as we update our databases every day.


Newsletter sign-up

Weekly statistics, charts and insights to help you stay on top of the space industry.